Location: Club d'Astronomie Sirius du Saguenay
(48.5448°N, 71.1471°W)
Time: 18:31:49
(UTC-04:00)

ISS - Visible Passes

Search period start: 18 July 2018 00:00
Search period end: 28 July 2018 00:00
Orbit: 402 x 408 km, 51.6° (Epoch: 19 July)

Date Brightness Start Highest point End Pass type
(mag) Time Alt. Az. Time Alt. Az. Time Alt. Az.
18 Jul -3.1 01:00:29 22° W 01:02:22 55° N 01:05:37 10° ENE visible
18 Jul -3.0 02:35:55 10° WNW 02:39:10 52° N 02:42:24 10° E visible
18 Jul -3.7 04:12:28 10° WNW 04:15:43 56° SSW 04:18:57 10° SE visible
18 Jul -2.4 22:35:08 22° ESE 22:35:08 22° ESE 22:36:48 10° E visible
19 Jul -3.6 00:07:07 11° WSW 00:10:12 70° NNW 00:13:31 10° ENE visible
19 Jul -2.8 01:43:46 10° WNW 01:46:58 47° N 01:50:11 10° E visible
19 Jul -3.9 03:20:21 10° WNW 03:23:39 85° SSW 03:26:57 10° ESE visible
19 Jul -2.4 21:39:37 10° S 21:41:58 18° SE 21:44:19 10° E visible
19 Jul -4.0 23:14:48 10° WSW 23:18:05 85° SSE 23:21:23 10° ENE visible
20 Jul -2.8 00:51:33 10° W 00:54:46 47° N 00:57:58 10° ENE visible
20 Jul -3.6 02:28:13 10° WNW 02:31:31 70° NNE 02:34:49 10° ESE visible
20 Jul -3.0 04:04:55 10° W 04:07:51 30° SW 04:10:46 10° SSE visible
20 Jul -3.8 22:22:47 10° SW 22:25:59 56° SSE 22:29:14 10° ENE visible
20 Jul -3.0 23:59:20 10° W 00:02:33 52° N 00:05:47 10° ENE visible
21 Jul -3.1 01:36:05 10° WNW 01:39:21 55° N 01:42:36 10° E visible
21 Jul -3.6 03:12:39 10° WNW 03:15:51 47° SSW 03:19:01 10° SE visible
21 Jul -3.2 21:30:56 10° SSW 21:33:58 35° SE 21:37:00 10° E visible
21 Jul -3.4 23:07:05 10° W 23:10:21 63° NNW 23:13:37 10° ENE visible
22 Jul -2.8 00:43:55 10° WNW 00:47:08 48° N 00:50:20 10° E visible
22 Jul -4.0 02:20:28 10° WNW 02:23:46 74° SSW 02:27:03 10° ESE visible
22 Jul -2.2 03:57:46 10° W 03:59:49 15° SW 04:01:51 10° S visible
22 Jul -3.8 22:14:53 10° WSW 22:18:10 85° NNW 22:21:28 10° ENE visible
22 Jul -2.8 23:51:41 10° WNW 23:54:53 46° N 23:58:05 10° ENE visible
23 Jul -3.2 01:28:19 10° WNW 01:30:50 49° WNW 01:30:50 49° WNW visible
23 Jul -3.9 21:22:47 10° SW 21:26:02 66° SSE 21:29:18 10° ENE visible
23 Jul -2.9 22:59:25 10° W 23:02:38 49° N 23:05:51 10° ENE visible
24 Jul -3.3 00:36:09 10° WNW 00:39:25 59° NNE 00:39:26 59° NNE visible
24 Jul -3.2 22:07:08 10° W 22:10:23 58° NNW 22:13:38 10° ENE visible
24 Jul -3.0 23:43:57 10° WNW 23:47:10 50° N 23:48:30 29° ENE visible
25 Jul -1.3 01:20:29 10° WNW 01:21:06 15° WNW 01:21:06 15° WNW visible
25 Jul -3.6 21:14:53 10° WSW 21:18:08 75° NNW 21:21:26 10° ENE visible
25 Jul -2.8 22:51:42 10° WNW 22:54:54 46° N 22:57:43 12° ENE visible
26 Jul -2.5 00:28:17 10° WNW 00:30:20 35° WNW 00:30:20 35° WNW visible
26 Jul -2.8 21:59:24 10° W 22:02:36 47° N 22:05:48 10° ENE visible
26 Jul -3.5 23:36:05 10° WNW 23:39:22 65° NNE 23:39:39 61° NE visible
27 Jul -3.0 21:07:05 10° W 21:10:18 54° N 21:13:32 10° ENE visible
27 Jul -3.1 22:43:52 10° WNW 22:47:05 52° N 22:49:00 21° E visible
